Location: Plainartige
(45.6866°N, 1.7993°E)
Time: 14:34:43
(UTC+00:00)

Meteor 1-11 Rocket - Pass Details

Date: 03 March 2021
Orbit: 831 x 916 km, 81.2° (Epoch: 11 April)

Event Time Altitude Azimuth Distance (km) Brightness Sun altitude
Rises 19:23:21 0° 175° (S) 3,468 6.7 -18.4°
Reaches altitude 10° 19:25:51 10° 170° (S) 2,520 6.0 -18.8°
Maximum altitude 19:31:24 54° 95° (E) 1,041 3.8 -19.7°
Drops below altitude 10° 19:36:51 10° 19° (NNE) 2,484 6.1 -20.7°
Sets 19:39:18 0° 15° (NNE) 3,413 6.8 -21.1°
